Marshalltown Municipal Airport
Tuesday 11:53 PM
Temperature57° (75°/44°)
Dew Point51°
Relative Humidity81
%
Visibility10
mi
Pressure1019.3
mb
Wind Direction
Wind SpeedCalm
Precipitation Today0.00"

Last 30 Observations

Time PresWx Temp DP Feels RH% Vsby Pressure Ceiling Direction Speed 1h Precip
10:53 PM 61° 52° 72
%
10
mi
1019.7
mb
Calm 0.00"
9:53 PM 61° 51° 70
%
10
mi
1019.3
mb
Calm 0.00"
8:53 PM 63° 51° 65
%
10
mi
1019.0
mb
SSW
200°
3
mph
0.00"
7:53 PM 69° 51° 53
%
10
mi
1018.6
mb
Calm 0.00"
6:53 PM 73° 47° 72°39
%
10
mi
1019.0
mb
Calm 0.00"
5:53 PM 71° 49° 70°45
%
10
mi
1019.3
mb
7,500
ft
NE
50°
3
mph
0.00"
4:53 PM 72° 48° 71°43
%
10
mi
1019.7
mb
E
90°
5
mph
0.00"
3:53 PM 74° 49° 73°41
%
10
mi
1020.3
mb
6,000
ft
NNW
340°
5
mph
0.00"
2:53 PM 73° 48° 72°41
%
10
mi
1020.7
mb
Variable 5
mph
0.00"
1:53 PM 70° 49° 47
%
10
mi
1021.0
mb
5,000
ft
Variable 3
mph
0.00"
12:53 PM 70° 49° 47
%
10
mi
1021.0
mb
NE
50°
9
mph
0.00"
11:53 AM 70° 49° 47
%
10
mi
1021.3
mb
Variable 5
mph
0.00"
10:53 AM 68° 52° 57
%
10
mi
1021.7
mb
N
360°
8
mph
0.00"
9:53 AM 64° 53° 67
%
10
mi
1021.7
mb
Variable 5
mph
0.00"
8:53 AM 59° 52° 78
%
10
mi
1021.7
mb
NNW
330°
3
mph
0.00"
7:53 AM 54° 50° 86
%
10
mi
1021.0
mb
Calm 0.00"
6:53 AM 48° 47° 47°96
%
10
mi
1020.7
mb
NE
50°
3
mph
0.00"
5:53 AM 44° 44° 41°100
%
10
mi
1020.7
mb
NNW
330°
5
mph
0.00"
4:53 AM 47° 45° 44°93
%
10
mi
1020.3
mb
N
10°
6
mph
0.00"
3:53 AM 46° 46° 44°100
%
10
mi
1020.7
mb
WNW
300°
5
mph
0.00"
2:53 AM 47° 47° 45°100
%
10
mi
1021.0
mb
NNW
340°
5
mph
0.00"
1:53 AM 47° 47° 44°100
%
10
mi
1021.0
mb
NW
310°
6
mph
0.00"
12:53 AM 49° 47° 48°93
%
10
mi
1021.0
mb
NNW
330°
3
mph
0.00"
11:53 PM 51° 48° 89
%
10
mi
1021.0
mb
NNW
340°
5
mph
0.00"
10:53 PM 54° 49° 83
%
10
mi
1020.7
mb
NNE
20°
6
mph
0.00"
9:53 PM 55° 50° 83
%
10
mi
1020.3
mb
NE
50°
5
mph
0.00"
8:53 PM 59° 51° 75
%
10
mi
1019.7
mb
NE
40°
6
mph
0.00"
7:53 PM 64° 50° 60
%
10
mi
1019.7
mb
NE
40°
6
mph
0.00"
6:53 PM 68° 49° 50
%
10
mi
1019.3
mb
N
10°
8
mph
0.00"
5:53 PM 69° 49° 49
%
10
mi
1019.7
mb
N
10°
9
mph
0.00"